{"data":{"norad_id":60287,"epoch":"2026-09-21T07:10:53.815872Z","epoch_age_seconds":112671,"freshness":"FRESH","line1":"1 60287U 24132K   26264.29923398  .00002130  00000+0  80348-4 0  9992","line2":"2 60287  53.1576 222.8138 0001422  74.3131 285.8027 15.31718834121520","mean_motion":15.31718834,"eccentricity":0.0001422,"inclination_deg":53.1576,"raan_deg":222.8138,"arg_perigee_deg":74.3131,"mean_anomaly_deg":285.8027,"bstar":8.0348e-5,"rev_number":12152,"period_min":94.012031975837,"perigee_km":469.70995030173,"apogee_km":471.65775495221,"semimajor_km":6848.820852627,"source":"CELESTRAK","updated_at":"2026-09-22T09:00:49.193113Z"}}